Location: 433rd Scouts Home(Lloyd Manor Park, Etobicoke )
(43.6722°N, 79.5542°W)
Time: 09:44:38
(UTC-04:00)

Nauka - Pass Details

Date: 01 October 2021
Orbit: 417 x 423 km, 51.6° (Epoch: 26 October)

Event Time Altitude Azimuth Distance (km) Brightness Sun altitude
Rises 20:29:28 0° 303° (WNW) 2,366 ? -17.2°
Reaches altitude 10° 20:31:35 10° 307° (NW) 1,501 ? -17.6°
Maximum altitude 20:34:55 61° 28° (NNE) 482 ? -18.2°
Enters shadow 20:35:17 56° 63° (ENE) 506 ? -18.2°
